Погода в Романовке

Погода в Романовке : погода сейчас, прогноз погоды и архив. Всё, что Вы хотите узнать о погоде в Романовке!

Поиск расширенной информации на нашем сайте:

Другие новости

Новости СМИ2

Главная страница сайта

Новости сайта

03.07.2017

Напоминаем, что на нашем специализированном сайте Метеоцентр.Азия вы можете получить высокодетализированные автоматические прогнозы погоды по пунктам России, СНГ и мира в авиационном формате (включающие направление и скорость ветра, видимость, явления погоды, количество и форму облачности, нижнюю и верхнюю границу облачности).


Погода в Романовке - сегодня

Время (UTC), дата Ветер
(°,м/с) 
Видим.   Явления Облачность Т
(°С)
Тd
(°С)
f(%) Тe
(°С)
Pmin
(гПа)
dP
(гПа)
Po
(мм)
O2
(г/м3)
Тmin Tmax R s Состояние
почвы
06 19.04.18 тихо ()   20000 м    10/5 600 м кучево-дожд., средняя 
[Cb cap|Ac As]
+3.5 -13.9 27 +4  1012.2  -1.5  678  271           
09 19.04.18 010 (С) 20000 м    10/0 средняя 
[Ac und]
+3.6 -13.6 27 +4  1012  -0.1  678  271           
15 19.04.18 290 (З) н/о    ясно 
-3.8 -14.8 42 -3  1017.4  1.3  680  279           
18 19.04.18 тихо ()   н/о    ясно 
-8.2 -14.3 61 -8  1021.5  1.9  681  284           
21 19.04.18 тихо ()   н/о    ясно 
-11.3 -15 74 -11  1024  682  288           
03 20.04.18 310 (СЗ) 20000 м    6/6 1000 м 
[Cu med, cong]
+1.9 -14.2 29 1020.4  0.4  683  275           
06 20.04.18 300 (СЗ) 20000 м    4/4 1000 м 
[Cu hum]
+5 -14.7 22 +4  1018.5  -0.5  683  271           
09 20.04.18 320 (СЗ) 20000 м    1/0 средняя 
[Ac lent]
+5.8 -17.6 17 +5  1018.4  0.2  683  271           
15 20.04.18 070 (В) н/о    ясно 
-4.4 -15.1 43 -4  1025.6  1.7  685  282           
18 20.04.18 050 (СВ) н/о    ясно 
-9.2 -14.3 66 -9  1028.2  0.4  686  287           
21 20.04.18 340 (С) н/о    ясно 
-11.2 -15.6 70 -11  1030.5  1.2  686  290           
03 21.04.18 140 (ЮВ) 20000 м    4/0 верхняя 
[Ci fib]
+7.2 -11.4 25 +8  1023.1  -0.7  687  270           
06 21.04.18 240 (ЮЗ) 20000 м    6/3 1000 м верхняя 
[Cu med, cong|Ci fib]
+12 -9.5 21 +12  1019.7  -1.4  686  265           
09 21.04.18 300 (СЗ) 20000 м    8/5 600 м кучево-дожд., верхняя 
[Cb cap|Ci fib]
+12.8 -9.2 21 +13  1018.8  -0.5  685  264           
15 21.04.18 080 (В) н/о    ясно 
-0 -9 51 +1  1027.2  1.9  688  278           
18 21.04.18 тихо ()   н/о    3/0 верхняя 
[Ci fib]
-4.6 -9.7 67 -5  1030.3  688  283           
21 21.04.18 тихо ()   н/о    1/0 верхняя 
[Ci fib]
-7.4 -11 75 -7  1032.3  0.7  689  286           
00 22.04.18 170 (Ю) 20000 м    ясно 
+0.9 -8.2 51 +2  1029.7  0.9  689  278  -8         
03 22.04.18 230 (ЮЗ) 20000 м    ясно 
+13.2 -8.5 21 +13  1023.3  -1.2  689  265           
06 22.04.18 210 (ЮЗ) 3{14}  20000 м    3/1 1000 м верхняя 
[Cu hum|Ci fib]
+16 -8.8 17 +16  1020.2  -1.9  687  262           
09 22.04.18 230 (ЮЗ) 5{11}  20000 м    10/3 600 м кучево-дожд., верхняя 
[Cb cap|Ci sp]
+16.3 -8.9 17 +16  1018.2  -1.7  686  261           
15 22.04.18 250 (З) н/о    5/0 верхняя 
[Ci fib]
+4.1 -8.5 39 +5  1023.4  0.7  686  273           
18 22.04.18 тихо ()   н/о    3/0 верхняя 
[Ci fib]
-1.6 -8.5 59 -2  1025.6  -0.2  686  279           
21 22.04.18 170 (Ю) н/о    ясно 
-3.5 -8.6 68 -3  1025.9  -0.5  686  281           
09 23.04.18 270 (З) 2{13}  20000 м    10/3 600 м кучево-дожд., средняя, верхняя 
[Cb cap|Ac lent|Ci fib]
+16.8 -9.5 16 +18  1012.4  -1.1  682  260           
Время (UTC), дата Ветер
(°,м/с) 
Видим.   Явления Облачность Т
(°С)
Тd
(°С)
f(%) Тe
(°С)
Pmin
(гПа)
dP
(гПа)
Po
(мм)
O2
(г/м3)
Тmin Tmax R s Состояние
почвы

Для получения пояснительной информации подведите курсор к названию столбца.

ПОГОДА в Романовке - архив

Всё, что Вы хотите узнать о погоде в Романовке - удобно и подробно!

Выберите нужную дату (начиная с 1 января 2015* года) и нажмите кнопку "Найти".
Будут отображены архивные сводки погоды по пункту Романовка, начиная с указанной даты.


Отображать данные в формате CSV (для использования в таблицах Excel)


Внимание! Наш архив погоды предназначен исключительно для личного некоммерческого использования в познавательных целях. Если Вам необходимы официальные справки о состоянии погоды (для производственных, юридических, коммерческих и т.п. целей), обращайтесь в органы Росгидромета.

*Примечание: данная дата относится к архиву по метеостанциям СССР (Россия, СНГ, Балтия).
Архив по метеостанциям Зарубежной Европы и Азии (кроме Китая) хранится 10 дней, по другим регионам земного шара (Китай, Африка, Америка, Австралия, Океания) - 1 день.

Романовка - район местоположения метеостанции


Название, широта, долгота, высота метеостанции:
Романовка 53.2°ш. 112.8°д. 923 м над ур. моря [Российская Федерация]

Дополнительная информация

В oтличие oт бoльшинства пoгoдных сайтoв мы публикуем пoдрoбную метеoинфoрмацию в детальнoм прoфессиoнальнoм фoрмате.

Характеристики температуры и влажнoсти вoздуха измеряются на высoте 2 м в тени вдали oт зданий и деревьев.
Скoрoсть ветра измеряется на высoте 10 м (на урoвне рoста челoвека скoрoсть ветра ниже в 1.5-2 раза). Если метеoстанция нахoдится в гoрoде или в лесу, тo скoрoсть ветра занижена на 2-4 м/с пo сравнению с oткрытым местoм. Скoрoсть ветра над акватoриями крупных рек и oзёр, а также на вершинах хoлмoв на 2-5 м/с выше, чем в oбычных услoвиях.
Атмoсфернoе давление в разных тoчках местнoсти мoжет значительнo oтличаться oт давления на метеoстанции, в зависимoсти oт услoвий рельефа (при пoдъёме на 10 м давление пoнижается примернo на 1 мм рт.ст.).